Home   Weather   Port-aux-Francais   Past weeks
Flag for French Southern Territories

Past Weather in Port-aux-Francais, French Southern Territories — Yesterday and Last 2 Weeks

Now
38 °F

Chilly.


Feels Like: 28 °F
Forecast: 36 / 32 °F
Wind: 21 mph from Northwest

Location: Port-Aux-Francais Iles Kerguelen

Current Time: May 25, 2019 at 12:18:09 pm

Latest Report: May 25, 2019 at 11:00 am


Visibility: N/A

Pressure: 29.54 "Hg

Humidity: 71%

Dew Point: 30 °F

Location of Port-aux-FrancaisLocation

Past Weather in Port-aux-Francais — Graph

°F

Port-aux-Francais Temperature Yesterday

Maximum temperature yesterday: 47 °F (at 7:00 pm)
Minimum temperature yesterday: 33 °F (at 11:00 am)
Average temperature yesterday: 40 °F

High & Low Weather Summary for the Past Weeks

 TemperatureHumidityPressure
High58 °F (May 11, 2:00 pm)95% (May 24, 6:00 pm)30.11 "Hg (May 24, 6:00 pm)
Low32 °F (May 14, 2:00 am)47% (May 22, 1:00 pm)28.88 "Hg (May 24, 9:00 pm)
Average41 °F74%29.65 "Hg
* Reported May 10 11:00 am — May 25 11:00 am, Port-aux-Francais. Weather by CustomWeather, © 2019

Note: Actual official high and low records may vary slightly from our data, if they occured in-between our weather recording intervals... More about our weather records

Advertising

Port-aux-Francais Weather History for the Previous 24 Hours

Scroll right to see more
 ConditionsComfort  
Time TempWeatherWind HumidityBarometerVisibility
11:00 am
Sat, May 25
38 °FChilly.21 mph71%29.54 "HgN/A
10:00 am37 °FChilly.18 mph72%29.50 "HgN/A
9:00 am36 °FChilly.20 mph73%29.50 "HgN/A
8:00 am36 °FChilly.22 mph77%29.47 "HgN/A
7:00 am35 °FChilly.18 mph80%29.47 "HgN/A
6:00 am35 °FChilly.16 mph75%29.47 "HgN/A
5:00 am35 °FChilly.18 mph72%29.44 "HgN/A
4:00 am36 °FChilly.23 mph71%29.41 "HgN/A
3:00 am36 °FChilly.24 mph81%29.41 "HgN/A
2:00 am36 °FChilly.29 mph86%29.35 "HgN/A
1:00 am36 °FChilly.36 mph83%29.29 "HgN/A
12:00 am36 °FChilly.51 mph86%29.15 "HgN/A
11:00 pm
Fri, May 24
36 °FChilly.53 mph85%29.03 "HgN/A
10:00 pm43 °FQuite cool.22 mph88%28.88 "HgN/A
9:00 pm43 °FQuite cool.25 mph84%28.88 "HgN/A
8:00 pm44 °FQuite cool.36 mph80%28.91 "HgN/A
7:00 pm47 °FCool.37 mph85%28.97 "HgN/A
6:00 pm44 °FQuite cool.20 mph95%29.06 "HgN/A
5:00 pm37 °FChilly.5 mph94%29.15 "HgN/A
4:00 pm37 °FChilly.10 mph94%29.23 "HgN/A
3:00 pm36 °FChilly.14 mph94%29.32 "HgN/A
2:00 pm34 °FChilly.10 mph93%29.38 "HgN/A
1:00 pm33 °FChilly.6 mph92%29.47 "HgN/A
12:00 pm33 °FChilly.5 mph91%29.53 "HgN/A
Weather by CustomWeather, © 2019

See weather overview